sat.trackr.live / text

‹ back to catalog

STARLINK-36617

NORAD 67634 · 2026-020T

PAYLOAD ACTIVE UNKNOWN

§ Identity

Operator
Country
US
Launch date
2026-01-30
Launch site
AFETR
Launch vehicle
Mass (kg)
RCS (m²)

Purposes: comms

External: N2YO · Heavens-Above · Gunter

§ Orbital elements

Epoch: 2026-09-19T22:07:42.967776Z

Period
94.27 min
Inclination
43.0009°
Eccentricity
0.0001172
Mean motion
15.27595374 rev/d
Perigee alt
482.2 km
Apogee alt
483.8 km
Semi-major
6,861.1 km
B*
7.1369e-4
RAAN
123.3178°
Arg perigee
275.5234°
Mean anomaly
84.5484°
Rev number
3,581

§ Raw data

STARLINK-366171 67634U 26020T   26262.92202509  .00019438  00000+0  71369-3 0  99962 67634  43.0009 123.3178 0001172 275.5234  84.5484 15.27595374 35816

JSON: /api/v1/satellites/67634 · /tle

For live sub-satellite position, see the globe view (requires WebGL).

§ Visibility from observer

Set your observer location to see the next 7 days of passes ≥ 10°. The values pass through the URL so the page stays shareable.

No JS? Fill the form by hand. The geolocation button needs JavaScript.